Flag for Sierra Leone Weather past 2 weeks in Bo, Sierra Leone

Now
75 °F

Light rain. Passing clouds.


Feels Like: 74 °F
Forecast: 71 / 83 °F
Wind: No wind

Location: Roberts Field

Current Time: Aug 5, 2015 at 3:08:30 AM

Latest Report: Aug 5, 2015 at 2:00 AM


Visibility: 5 mi

Pressure: 29.98 "Hg

Humidity: 94%

Dew point: 73 °F

Location of BoLocation

Historic Weather in Bo — Graph

°F

Bo temperature yesterday

Maximum temperature yesterday: 81 °F (at 12:30 PM)
Minimum temperature yesterday: 75 °F (at 12:00 AM)
Average temperature yesterday: 78 °F

Past Weeks' High & Low Weather Summary

 TemperatureHumidityPressure
High84 °F (Jul 26, 12:30 PM)100% (Jul 21, 3:30 AM)30.04 "Hg (Jul 21, 3:30 AM)
Low70 °F (Jul 29, 6:30 AM)62% (Jul 29, 12:30 PM)29.89 "Hg (Aug 2, 4:30 PM)
Average77 °F87%29.97 "Hg
* Reported Jul 21 2:30 AM — Aug 5 2:00 AM, Bo, Weather by CustomWeather, © 2015

Note: Actual official high and low records may vary slightly from our data, if they occured in-between our weather recording intervals... More about our weather records

Advertising

Bo weather history for previous 24 hours

 ConditionsComfort  
Time TempWeatherWind HumidityBarometerVisibility
2:00 AM
Wed, Aug 5
75 °FLight rain. Passing clouds.No wind94%29.98 "Hg5 mi
1:00 AM75 °FLight rain. Passing clouds.3 mph94%29.98 "Hg5 mi
12:30 AM75 °FLight rain. Passing clouds.6 mph94%29.98 "Hg5 mi
12:00 AM77 °FLight rain. Passing clouds.3 mph83%30.01 "Hg5 mi
11:30 PM
Tue, Aug 4
77 °FPassing clouds.3 mph83%30.01 "HgN/A
11:00 PM77 °FPassing clouds.6 mph83%30.01 "HgN/A
10:30 PM77 °FPassing clouds.5 mph83%29.98 "HgN/A
8:30 PM77 °FPassing clouds.No wind89%29.98 "HgN/A
8:00 PM77 °FPassing clouds.3 mph89%29.95 "HgN/A
7:30 PM77 °FPartly sunny.5 mph89%29.95 "HgN/A
7:00 PM77 °FPartly sunny.8 mph83%29.95 "HgN/A
6:30 PM77 °FPartly sunny.9 mph83%29.92 "HgN/A
6:00 PM77 °FPartly sunny.9 mph83%29.92 "HgN/A
5:30 PM79 °FPartly sunny.12 mph84%29.92 "HgN/A
5:00 PM79 °FPartly sunny.9 mph84%29.92 "HgN/A
4:30 PM81 °FPartly sunny.12 mph79%29.92 "HgN/A
4:00 PM81 °FPartly sunny.12 mph79%29.92 "HgN/A
3:30 PM81 °FPartly sunny.14 mph79%29.92 "HgN/A
3:00 PM81 °FPartly sunny.12 mph84%29.95 "HgN/A
2:00 PM81 °FPartly sunny.15 mph84%29.95 "HgN/A
1:30 PM81 °FPartly sunny.12 mph84%29.98 "HgN/A
1:00 PM81 °FPartly sunny.13 mph79%29.98 "HgN/A
12:30 PM81 °FPartly sunny.9 mph79%29.98 "HgN/A
12:00 PM79 °FPartly sunny.12 mph84%29.98 "HgN/A
11:30 AM79 °FPartly sunny.14 mph84%30.01 "HgN/A
11:00 AM79 °FPartly sunny.16 mph89%30.01 "HgN/A
10:30 AM79 °FPartly sunny.12 mph89%30.01 "HgN/A
10:00 AM77 °FDrizzle. Partly sunny.8 mph94%29.98 "Hg6 mi
9:30 AM79 °FDrizzle. Partly sunny.12 mph89%29.98 "Hg5 mi
9:00 AM77 °FDrizzle. Partly sunny.6 mph94%29.98 "Hg5 mi
8:30 AM77 °FPartly sunny.7 mph94%29.98 "HgN/A
8:00 AM77 °FPartly sunny.9 mph94%29.95 "HgN/A
7:30 AM77 °FPassing clouds.6 mph94%29.95 "HgN/A
7:00 AM77 °FPassing clouds.9 mph94%29.95 "HgN/A
6:30 AM77 °FPassing clouds.7 mph94%29.95 "Hg6 mi
6:00 AM75 °FPassing clouds.No wind94%29.95 "Hg5 mi
5:30 AM77 °FPassing clouds.No wind94%29.95 "Hg4 mi
5:00 AM77 °FPassing clouds.12 mph94%29.95 "HgN/A
4:30 AM75 °FPassing clouds.8 mph94%29.95 "HgN/A
4:00 AM75 °FPassing clouds.5 mph94%29.95 "HgN/A
3:00 AM75 °FPassing clouds.No wind94%29.95 "HgN/A
Weather by CustomWeather, © 2015

See weather overviewHow to use our weather pages